View from above orbital plane
|
View from above satellite
|
Ground track
|
The orbit data is extracted from the following two-line orbital elements,
1 34839U 09021A 21058.42579759 .00000885 00000-0 35311-4 0 9991
2 34839 97.0448 58.4277 0027251 188.5606 171.5173 15.27306088658694
Epoch (UTC): | 27 February 2021 10:13:08 |
Eccentricity: | 0.0027251 |
inclination: | 97.0448° |
perigee height: | 465 km |
apogee height: | 502 km |
right ascension of ascending node: | 58.4277° |
argument of perigee: | 188.5606° |
revolutions per day: | 15.27306088 |
mean anomaly at epoch: | 171.5173° |
orbit number at epoch: | 65869 |
The dashed part of the orbit path shows where the satellite is in the earth's shadow,
|
|